Broomfield, CO

7:33 PM MDT on June 23, 2017 (GMT -0600)
Jeffco

Weather History for KBJC - January, 2013

Change the Weather History Date:

Thursday, January 17, 2013

  Actual Average Record
Temperature  
Mean Temperature 38 °F -  
Max Temperature 51 °F 44 °F 64 °F (2000)
Min Temperature 26 °F 25 °F -10 °F (1987)
Degree Days  
Heating Degree Days 26    
Moisture  
Dew Point 13 °F    
Average Humidity 42    
Maximum Humidity 60    
Minimum Humidity 16    
Precipitation  
Precipitation 0.00 in - - ()
Sea Level Pressure  
Sea Level Pressure 30.32 in    
Wind  
Wind Speed 5 mph (West)    
Max Wind Speed 13 mph    
Max Gust Speed 16 mph    
Visibility 10 miles    
Events      
Averages and records for this station are not official NWS values.
T = Trace of Precipitation, MM = Missing Value Source: NWS Daily Summary

Daily Weather History Graph

Daily Weather History Graph

Search for Another Location

Airport or City:

Trip Planner

Search our weather history database for the weather conditions in past years. The results will help you decide how hot, cold, wet, or windy it might be!

Date:

Astronomy

Jan. 17, 2013 Rise Set
Actual Time 7:19 AM MST 5:02 PM MST
Civil Twilight 6:49 AM MST 5:32 PM MST
Nautical Twilight 6:16 AM MST 6:05 PM MST
Astronomical Twilight 5:44 AM MST 6:37 PM MST
Moon 10:27 AM MST (1/17) 11:56 PM MST (1/17)
Length of Visible Light 10h 42m
Length of Day
9h 43m
Waxing Crescent, 38% of the Moon is Illuminated
Jan 17
Waxing Crescent
Jan 18
First Quarter
Jan 26
Full
Feb 3
Last Quarter
Feb 10
New

Hourly Weather History & Observations

Time (MST) Temp. Windchill Dew Point Humidity Pressure Visibility Wind Dir Wind Speed Gust Speed Precip Events Conditions
12:16 AM 32.0 °F 25.6 °F 17.6 °F 55% 30.35 in 10.0 mi SSW 6.9 mph - N/A   Clear
12:36 AM 30.2 °F 25.4 °F 15.8 °F 55% 30.35 in 10.0 mi SW 4.6 mph - N/A   Clear
12:55 AM 30.2 °F 23.4 °F 15.8 °F 55% 30.35 in 10.0 mi WSW 6.9 mph - N/A   Clear
1:15 AM 30.2 °F 23.4 °F 15.8 °F 55% 30.36 in 10.0 mi WSW 6.9 mph - N/A   Clear
1:36 AM 30.2 °F 25.4 °F 15.8 °F 55% 30.36 in 10.0 mi WSW 4.6 mph - N/A   Clear
1:56 AM 30.2 °F - 15.8 °F 55% 30.36 in 10.0 mi Calm Calm - N/A   Clear
2:36 AM 32.0 °F 28.7 °F 15.8 °F 51% 30.36 in 10.0 mi NW 3.5 mph - N/A   Clear
2:56 AM 30.2 °F - 15.8 °F 55% 30.37 in 10.0 mi Calm Calm - N/A   Clear
3:16 AM 32.0 °F 28.7 °F 15.8 °F 51% 30.37 in 10.0 mi North 3.5 mph - N/A   Clear
3:36 AM 30.2 °F 25.4 °F 15.8 °F 55% 30.37 in 10.0 mi North 4.6 mph - N/A   Clear
3:56 AM 28.4 °F 23.3 °F 15.8 °F 59% 30.37 in 10.0 mi NNW 4.6 mph - N/A   Clear
4:15 AM 30.2 °F 20.8 °F 17.6 °F 60% 30.37 in 10.0 mi NNW 11.5 mph - N/A   Clear
4:36 AM 28.4 °F 19.1 °F 15.8 °F 59% 30.37 in 10.0 mi NNW 10.4 mph - N/A   Clear
4:56 AM 30.2 °F 22.6 °F 15.8 °F 55% 30.37 in 10.0 mi NNW 8.1 mph - N/A   Clear
5:49 AM 26.6 °F - 14.0 °F 59% 30.38 in 30.0 mi Calm Calm - N/A   Clear
6:48 AM 28.4 °F - 14.0 °F 55% 30.39 in 70.0 mi Calm Calm - N/A   Clear
7:54 AM 28.4 °F - 12.2 °F 51% 30.40 in 70.0 mi Calm Calm - N/A   Clear
9:47 AM 37.4 °F - 12.2 °F 36% 30.44 in 60.0 mi Calm Calm - N/A   Partly Cloudy
10:53 AM 41.0 °F - 12.2 °F 31% 30.42 in 60.0 mi Calm Calm - N/A   Partly Cloudy
11:57 AM 48.2 °F - 10.4 °F 22% 30.36 in 60.0 mi South 3.5 mph - N/A   Partly Cloudy
12:53 PM 50.0 °F - 8.6 °F 19% 30.32 in 60.0 mi South 6.9 mph - N/A   Partly Cloudy
1:45 PM 50.0 °F - 6.8 °F 17% 30.30 in 60.0 mi SE 8.1 mph - N/A   Partly Cloudy
2:49 PM 51.8 °F - 6.8 °F 16% 30.28 in 60.0 mi ESE 8.1 mph - N/A   Partly Cloudy
3:47 PM 50.0 °F - 6.8 °F 17% 30.28 in 60.0 mi SE 6.9 mph - N/A   Clear
4:45 PM 48.2 °F - 8.6 °F 20% 30.28 in 60.0 mi Calm Calm - N/A   Clear
5:47 PM 44.6 °F - 10.4 °F 25% 30.28 in 30.0 mi Calm Calm - N/A   Clear
6:46 PM 41.0 °F - 8.6 °F 26% 30.28 in 30.0 mi Calm Calm - N/A   Clear
8:48 PM 33.8 °F - 15.8 °F 48% 30.25 in 50.0 mi Calm Calm - N/A   Clear
9:46 PM 37.4 °F - 12.2 °F 36% 30.24 in 20.0 mi Calm Calm - N/A   Clear
10:16 PM 33.8 °F 29.6 °F 12.2 °F 41% 30.22 in 10.0 mi West 4.6 mph - N/A   Clear
10:36 PM 35.6 °F 32.8 °F 10.4 °F 35% 30.22 in 10.0 mi West 3.5 mph - N/A   Clear
10:55 PM 37.4 °F 34.9 °F 8.6 °F 30% 30.22 in 10.0 mi WNW 3.5 mph - N/A   Clear
11:16 PM 41.0 °F 33.9 °F 3.2 °F 21% 30.21 in 10.0 mi NW 12.7 mph 16.1 mph N/A   Clear
11:36 PM 35.6 °F 28.6 °F 15.8 °F 44% 30.20 in 10.0 mi NW 9.2 mph - N/A   Clear
11:56 PM 37.4 °F 31.4 °F 10.4 °F 33% 30.20 in 10.0 mi West 8.1 mph - N/A   Clear